iso_date,epoch_date,Year,Hour,Min,DOY,POS_DOY,Lat,Lon,BP,Ts,Ta,has_bp,has_ts,has_ta,BuoyID,Buoy_Type,Buoy_Owner,Logistics,Hemisphere
2016-11-02T16:59:31Z,1478105971,2016,17,0,307.708,307.708,72.9426,29.7136,1021.9,6.92,-999.0,yes,yes,no,300234064506690,BD2GI,AOML,POLAR_STERN,North
2016-11-02T18:00:00Z,1478109600,2016,18,0,307.75,307.75,72.9362,29.7156,1022.1,6.96,-999.0,yes,yes,no,300234064506690,BD2GI,AOML,POLAR_STERN,North
2016-11-02T19:00:28Z,1478113229,2016,19,0,307.792,307.792,72.931,29.709,1022.2,6.93,-999.0,yes,yes,no,300234064506690,BD2GI,AOML,POLAR_STERN,North
2016-11-02T19:59:31Z,1478116771,2016,20,0,307.833,307.833,72.9276,29.6952,1022.4,6.87,-999.0,yes,yes,no,300234064506690,BD2GI,AOML,POLAR_STERN,North
2016-11-02T21:00:00Z,1478120400,2016,21,0,307.875,307.875,72.9252,29.676,1022.4,6.95,-999.0,yes,yes,no,300234064506690,BD2GI,AOML,POLAR_STERN,North
2016-11-02T22:00:28Z,1478124029,2016,22,0,307.917,307.917,72.9234,29.6538,1022.6,6.93,-999.0,yes,yes,no,300234064506690,BD2GI,AOML,POLAR_STERN,North
2016-11-02T22:59:31Z,1478127571,2016,23,0,307.958,307.958,72.922,29.6292,1022.6,6.94,-999.0,yes,yes,no,300234064506690,BD2GI,AOML,POLAR_STERN,North
2016-11-03T00:00:00Z,1478131200,2016,0,0,308.0,308.0,72.9212,29.6068,1022.8,6.91,-999.0,yes,yes,no,300234064506690,BD2GI,AOML,POLAR_STERN,North
2016-11-03T01:00:28Z,1478134829,2016,1,0,308.042,308.042,72.9186,29.592,1022.7,6.92,-999.0,yes,yes,no,300234064506690,BD2GI,AOML,POLAR_STERN,North
2016-11-03T01:59:31Z,1478138371,2016,2,0,308.083,308.083,72.9162,29.5888,1022.9,6.92,-999.0,yes,yes,no,300234064506690,BD2GI,AOML,POLAR_STERN,North
2016-11-03T03:00:00Z,1478142000,2016,3,0,308.125,308.125,72.9118,29.5844,1023.2,6.88,-999.0,yes,yes,no,300234064506690,BD2GI,AOML,POLAR_STERN,North
2016-11-03T04:00:28Z,1478145629,2016,4,0,308.167,308.167,72.9062,29.5822,1023.3,6.92,-999.0,yes,yes,no,300234064506690,BD2GI,AOML,POLAR_STERN,North
2016-11-03T04:59:31Z,1478149171,2016,5,0,308.208,308.208,72.9014,29.579,1023.5,6.93,-999.0,yes,yes,no,300234064506690,BD2GI,AOML,POLAR_STERN,North
2016-11-03T06:00:00Z,1478152800,2016,6,0,308.25,308.25,72.8984,29.571,1024.1,6.9,-999.0,yes,yes,no,300234064506690,BD2GI,AOML,POLAR_STERN,North
2016-11-03T07:00:28Z,1478156429,2016,7,0,308.292,308.292,72.8962,29.5598,1024.6,6.95,-999.0,yes,yes,no,300234064506690,BD2GI,AOML,POLAR_STERN,North
2016-11-03T07:59:31Z,1478159971,2016,8,0,308.333,308.333,72.895,29.5452,1025.1,6.95,-999.0,yes,yes,no,300234064506690,BD2GI,AOML,POLAR_STERN,North
2016-11-03T09:00:00Z,1478163600,2016,9,0,308.375,308.375,72.8944,29.527,1025.7,6.94,-999.0,yes,yes,no,300234064506690,BD2GI,AOML,POLAR_STERN,North
2016-11-03T10:00:28Z,1478167229,2016,10,0,308.417,308.417,72.8946,29.5026,1026.2,6.93,-999.0,yes,yes,no,300234064506690,BD2GI,AOML,POLAR_STERN,North
2016-11-03T10:59:31Z,1478170771,2016,11,0,308.458,308.458,72.8954,29.4792,1026.8,6.89,-999.0,yes,yes,no,300234064506690,BD2GI,AOML,POLAR_STERN,North
2016-11-03T12:00:00Z,1478174400,2016,12,0,308.5,308.5,72.8958,29.4584,1027.3,6.92,-999.0,yes,yes,no,300234064506690,BD2GI,AOML,POLAR_STERN,North
2016-11-03T13:00:28Z,1478178029,2016,13,0,308.542,308.542,72.895,29.4416,1027.4,6.92,-999.0,yes,yes,no,300234064506690,BD2GI,AOML,POLAR_STERN,North
2016-11-03T13:59:31Z,1478181571,2016,14,0,308.583,308.583,72.8936,29.4298,1027.6,6.87,-999.0,yes,yes,no,300234064506690,BD2GI,AOML,POLAR_STERN,North
2016-11-03T15:00:00Z,1478185200,2016,15,0,308.625,308.625,72.892,29.4226,1028.1,6.9,-999.0,yes,yes,no,300234064506690,BD2GI,AOML,POLAR_STERN,North
2016-11-03T16:00:28Z,1478188829,2016,16,0,308.667,308.667,72.8898,29.4252,1028.4,6.92,-999.0,yes,yes,no,300234064506690,BD2GI,AOML,POLAR_STERN,North
2016-11-03T16:59:31Z,1478192371,2016,17,0,308.708,308.708,72.887,29.4274,1028.7,6.85,-999.0,yes,yes,no,300234064506690,BD2GI,AOML,POLAR_STERN,North
2016-11-03T18:00:00Z,1478196000,2016,18,0,308.75,308.75,72.8846,29.4252,1028.9,6.94,-999.0,yes,yes,no,300234064506690,BD2GI,AOML,POLAR_STERN,North
2016-11-03T19:00:28Z,1478199629,2016,19,0,308.792,308.792,72.8828,29.423,1029.2,6.88,-999.0,yes,yes,no,300234064506690,BD2GI,AOML,POLAR_STERN,North
2016-11-03T19:59:31Z,1478203171,2016,20,0,308.833,308.833,72.8816,29.4142,1029.6,6.94,-999.0,yes,yes,no,300234064506690,BD2GI,AOML,POLAR_STERN,North
2016-11-03T21:00:00Z,1478206800,2016,21,0,308.875,308.875,72.8818,29.3974,1029.8,6.94,-999.0,yes,yes,no,300234064506690,BD2GI,AOML,POLAR_STERN,North
2016-11-03T22:00:28Z,1478210429,2016,22,0,308.917,308.917,72.8828,29.3764,1030.0,6.94,-999.0,yes,yes,no,300234064506690,BD2GI,AOML,POLAR_STERN,North
2016-11-03T22:59:31Z,1478213971,2016,23,0,308.958,308.958,72.885,29.3522,1030.1,6.85,-999.0,yes,yes,no,300234064506690,BD2GI,AOML,POLAR_STERN,North
2016-11-04T00:00:00Z,1478217600,2016,0,0,309.0,309.0,72.8876,29.3302,1030.2,6.88,-999.0,yes,yes,no,300234064506690,BD2GI,AOML,POLAR_STERN,North
2016-11-04T01:00:28Z,1478221229,2016,1,0,309.042,309.042,72.8894,29.311,1030.1,6.93,-999.0,yes,yes,no,300234064506690,BD2GI,AOML,POLAR_STERN,North
2016-11-04T01:59:31Z,1478224771,2016,2,0,309.083,309.083,72.8898,29.3012,1030.0,6.92,-999.0,yes,yes,no,300234064506690,BD2GI,AOML,POLAR_STERN,North
2016-11-04T03:00:00Z,1478228400,2016,3,0,309.125,309.125,72.8892,29.3034,1030.1,6.86,-999.0,yes,yes,no,300234064506690,BD2GI,AOML,POLAR_STERN,North
2016-11-04T04:00:28Z,1478232029,2016,4,0,309.167,309.167,72.8876,29.3088,1030.2,6.93,-999.0,yes,yes,no,300234064506690,BD2GI,AOML,POLAR_STERN,North
2016-11-04T04:59:31Z,1478235571,2016,5,0,309.208,309.208,72.8854,29.3148,1030.0,6.92,-999.0,yes,yes,no,300234064506690,BD2GI,AOML,POLAR_STERN,North
2016-11-04T06:00:00Z,1478239200,2016,6,0,309.25,309.25,72.8836,29.3202,1030.0,6.92,-999.0,yes,yes,no,300234064506690,BD2GI,AOML,POLAR_STERN,North
2016-11-04T07:00:28Z,1478242829,2016,7,0,309.292,309.292,72.8824,29.3234,1029.8,6.92,-999.0,yes,yes,no,300234064506690,BD2GI,AOML,POLAR_STERN,North
2016-11-04T07:59:31Z,1478246371,2016,8,0,309.333,309.333,72.8826,29.318,1029.9,6.87,-999.0,yes,yes,no,300234064506690,BD2GI,AOML,POLAR_STERN,North
2016-11-04T09:00:00Z,1478250000,2016,9,0,309.375,309.375,72.8838,29.3034,1029.9,6.92,-999.0,yes,yes,no,300234064506690,BD2GI,AOML,POLAR_STERN,North
2016-11-04T10:00:28Z,1478253629,2016,10,0,309.417,309.417,72.886,29.284,1030.1,6.92,-999.0,yes,yes,no,300234064506690,BD2GI,AOML,POLAR_STERN,North
2016-11-04T10:59:31Z,1478257171,2016,11,0,309.458,309.458,72.8882,29.2658,1030.1,6.86,-999.0,yes,yes,no,300234064506690,BD2GI,AOML,POLAR_STERN,North
2016-11-04T12:00:00Z,1478260800,2016,12,0,309.5,309.5,72.8908,29.2496,1030.0,6.92,-999.0,yes,yes,no,300234064506690,BD2GI,AOML,POLAR_STERN,North
2016-11-04T13:00:28Z,1478264429,2016,13,0,309.542,309.542,72.8934,29.2394,1029.8,6.92,-999.0,yes,yes,no,300234064506690,BD2GI,AOML,POLAR_STERN,North
2016-11-04T13:59:31Z,1478267971,2016,14,0,309.583,309.583,72.8946,29.2358,1029.5,6.92,-999.0,yes,yes,no,300234064506690,BD2GI,AOML,POLAR_STERN,North
2016-11-04T15:00:00Z,1478271600,2016,15,0,309.625,309.625,72.8942,29.2396,1029.4,6.92,-999.0,yes,yes,no,300234064506690,BD2GI,AOML,POLAR_STERN,North
2016-11-04T16:00:28Z,1478275229,2016,16,0,309.667,309.667,72.8932,29.2486,1029.4,6.92,-999.0,yes,yes,no,300234064506690,BD2GI,AOML,POLAR_STERN,North
2016-11-04T16:59:31Z,1478278771,2016,17,0,309.708,309.708,72.8922,29.2588,1029.1,6.93,-999.0,yes,yes,no,300234064506690,BD2GI,AOML,POLAR_STERN,North
2016-11-04T18:00:00Z,1478282400,2016,18,0,309.75,309.75,72.891,29.2664,1028.9,6.92,-999.0,yes,yes,no,300234064506690,BD2GI,AOML,POLAR_STERN,North
2016-11-04T19:00:28Z,1478286029,2016,19,0,309.792,309.792,72.8904,29.2686,1028.8,6.92,-999.0,yes,yes,no,300234064506690,BD2GI,AOML,POLAR_STERN,North
2016-11-04T19:59:31Z,1478289571,2016,20,0,309.833,309.833,72.8904,29.2612,1028.8,6.92,-999.0,yes,yes,no,300234064506690,BD2GI,AOML,POLAR_STERN,North
2016-11-04T21:00:00Z,1478293200,2016,21,0,309.875,309.875,72.8918,29.2474,1028.7,6.83,-999.0,yes,yes,no,300234064506690,BD2GI,AOML,POLAR_STERN,North
2016-11-04T22:00:28Z,1478296829,2016,22,0,309.917,309.917,72.8942,29.228,1028.5,6.91,-999.0,yes,yes,no,300234064506690,BD2GI,AOML,POLAR_STERN,North
2016-11-04T22:59:31Z,1478300371,2016,23,0,309.958,309.958,72.897,29.2036,1028.3,6.86,-999.0,yes,yes,no,300234064506690,BD2GI,AOML,POLAR_STERN,North
2016-11-05T00:00:00Z,1478304000,2016,0,0,310.0,310.0,72.8998,29.1786,1028.1,6.89,-999.0,yes,yes,no,300234064506690,BD2GI,AOML,POLAR_STERN,North
2016-11-05T01:00:28Z,1478307629,2016,1,0,310.042,310.042,72.901,29.1586,1027.9,6.83,-999.0,yes,yes,no,300234064506690,BD2GI,AOML,POLAR_STERN,North
2016-11-05T01:59:31Z,1478311171,2016,2,0,310.083,310.083,72.9006,29.1428,1027.7,6.89,-999.0,yes,yes,no,300234064506690,BD2GI,AOML,POLAR_STERN,North
2016-11-05T03:00:00Z,1478314800,2016,3,0,310.125,310.125,72.8984,29.1318,1027.4,6.85,-999.0,yes,yes,no,300234064506690,BD2GI,AOML,POLAR_STERN,North
2016-11-05T04:00:28Z,1478318429,2016,4,0,310.167,310.167,72.8952,29.127,1027.3,6.88,-999.0,yes,yes,no,300234064506690,BD2GI,AOML,POLAR_STERN,North
2016-11-05T04:59:31Z,1478321971,2016,5,0,310.208,310.208,72.8918,29.127,1027.2,6.86,-999.0,yes,yes,no,300234064506690,BD2GI,AOML,POLAR_STERN,North
2016-11-05T06:00:00Z,1478325600,2016,6,0,310.25,310.25,72.8888,29.1276,1027.3,6.81,-999.0,yes,yes,no,300234064506690,BD2GI,AOML,POLAR_STERN,North
2016-11-05T07:00:28Z,1478329229,2016,7,0,310.292,310.292,72.8862,29.128,1027.3,6.74,-999.0,yes,yes,no,300234064506690,BD2GI,AOML,POLAR_STERN,North
2016-11-05T07:59:31Z,1478332771,2016,8,0,310.333,310.333,72.8836,29.1232,1027.5,6.82,-999.0,yes,yes,no,300234064506690,BD2GI,AOML,POLAR_STERN,North
2016-11-05T09:00:00Z,1478336400,2016,9,0,310.375,310.375,72.8818,29.1162,1027.6,6.87,-999.0,yes,yes,no,300234064506690,BD2GI,AOML,POLAR_STERN,North
2016-11-05T10:00:28Z,1478340029,2016,10,0,310.417,310.417,72.8808,29.1044,1027.6,6.86,-999.0,yes,yes,no,300234064506690,BD2GI,AOML,POLAR_STERN,North
2016-11-05T10:59:31Z,1478343571,2016,11,0,310.458,310.458,72.8802,29.088,1027.5,6.87,-999.0,yes,yes,no,300234064506690,BD2GI,AOML,POLAR_STERN,North
2016-11-05T12:00:00Z,1478347200,2016,12,0,310.5,310.5,72.8802,29.0714,1027.4,6.81,-999.0,yes,yes,no,300234064506690,BD2GI,AOML,POLAR_STERN,North
2016-11-05T13:00:28Z,1478350829,2016,13,0,310.542,310.542,72.8806,29.059,1027.4,6.81,-999.0,yes,yes,no,300234064506690,BD2GI,AOML,POLAR_STERN,North
2016-11-05T13:59:31Z,1478354371,2016,14,0,310.583,310.583,72.8808,29.0492,1027.3,6.84,-999.0,yes,yes,no,300234064506690,BD2GI,AOML,POLAR_STERN,North
2016-11-05T15:00:00Z,1478358000,2016,15,0,310.625,310.625,72.8808,29.0454,1027.1,6.83,-999.0,yes,yes,no,300234064506690,BD2GI,AOML,POLAR_STERN,North
2016-11-05T16:00:28Z,1478361629,2016,16,0,310.667,310.667,72.8796,29.0488,1027.1,6.88,-999.0,yes,yes,no,300234064506690,BD2GI,AOML,POLAR_STERN,North
2016-11-05T16:59:31Z,1478365171,2016,17,0,310.708,310.708,72.878,29.0586,1027.2,6.83,-999.0,yes,yes,no,300234064506690,BD2GI,AOML,POLAR_STERN,North
2016-11-05T18:00:00Z,1478368800,2016,18,0,310.75,310.75,72.8762,29.069,1027.1,6.84,-999.0,yes,yes,no,300234064506690,BD2GI,AOML,POLAR_STERN,North
2016-11-05T19:00:28Z,1478372429,2016,19,0,310.792,310.792,72.8746,29.0768,1027.2,6.87,-999.0,yes,yes,no,300234064506690,BD2GI,AOML,POLAR_STERN,North
2016-11-05T19:59:31Z,1478375971,2016,20,0,310.833,310.833,72.8736,29.081,1027.1,6.83,-999.0,yes,yes,no,300234064506690,BD2GI,AOML,POLAR_STERN,North
2016-11-05T21:00:00Z,1478379600,2016,21,0,310.875,310.875,72.8742,29.0772,1027.0,6.85,-999.0,yes,yes,no,300234064506690,BD2GI,AOML,POLAR_STERN,North
2016-11-05T22:00:28Z,1478383229,2016,22,0,310.917,310.917,72.8748,29.0698,1027.0,6.83,-999.0,yes,yes,no,300234064506690,BD2GI,AOML,POLAR_STERN,North
2016-11-05T22:59:31Z,1478386771,2016,23,0,310.958,310.958,72.877,29.0598,1026.9,6.85,-999.0,yes,yes,no,300234064506690,BD2GI,AOML,POLAR_STERN,North
2016-11-06T00:00:00Z,1478390400,2016,0,0,311.0,311.0,72.8784,29.046,1026.9,6.83,-999.0,yes,yes,no,300234064506690,BD2GI,AOML,POLAR_STERN,North
2016-11-06T01:00:28Z,1478394029,2016,1,0,311.042,311.042,72.8802,29.0282,1026.8,6.87,-999.0,yes,yes,no,300234064506690,BD2GI,AOML,POLAR_STERN,North
2016-11-06T01:59:31Z,1478397571,2016,2,0,311.083,311.083,72.8824,29.0128,1026.8,6.82,-999.0,yes,yes,no,300234064506690,BD2GI,AOML,POLAR_STERN,North
2016-11-06T03:00:00Z,1478401200,2016,3,0,311.125,311.125,72.8844,29.003,1026.7,6.84,-999.0,yes,yes,no,300234064506690,BD2GI,AOML,POLAR_STERN,North
2016-11-06T04:00:28Z,1478404829,2016,4,0,311.167,311.167,72.885,29.0004,1026.7,6.86,-999.0,yes,yes,no,300234064506690,BD2GI,AOML,POLAR_STERN,North
2016-11-06T04:59:31Z,1478408371,2016,5,0,311.208,311.208,72.8854,29.0042,1026.7,6.81,-999.0,yes,yes,no,300234064506690,BD2GI,AOML,POLAR_STERN,North
2016-11-06T06:00:00Z,1478412000,2016,6,0,311.25,311.25,72.8862,29.0104,1026.7,6.83,-999.0,yes,yes,no,300234064506690,BD2GI,AOML,POLAR_STERN,North
2016-11-06T07:00:28Z,1478415629,2016,7,0,311.292,311.292,72.8872,29.0116,1026.6,6.82,-999.0,yes,yes,no,300234064506690,BD2GI,AOML,POLAR_STERN,North
2016-11-06T07:59:31Z,1478419171,2016,8,0,311.333,311.333,72.8882,29.0148,1026.7,6.77,-999.0,yes,yes,no,300234064506690,BD2GI,AOML,POLAR_STERN,North
2016-11-06T09:00:00Z,1478422800,2016,9,0,311.375,311.375,72.8892,29.0118,1026.8,6.81,-999.0,yes,yes,no,300234064506690,BD2GI,AOML,POLAR_STERN,North
2016-11-06T10:00:28Z,1478426429,2016,10,0,311.417,311.417,72.8908,29.0064,1026.7,6.74,-999.0,yes,yes,no,300234064506690,BD2GI,AOML,POLAR_STERN,North
2016-11-06T10:59:31Z,1478429971,2016,11,0,311.458,311.458,72.8926,28.9974,1026.6,6.85,-999.0,yes,yes,no,300234064506690,BD2GI,AOML,POLAR_STERN,North
2016-11-06T12:00:00Z,1478433600,2016,12,0,311.5,311.5,72.8948,28.985,1026.4,6.84,-999.0,yes,yes,no,300234064506690,BD2GI,AOML,POLAR_STERN,North
2016-11-06T13:00:28Z,1478437229,2016,13,0,311.542,311.542,72.897,28.972,1026.4,6.77,-999.0,yes,yes,no,300234064506690,BD2GI,AOML,POLAR_STERN,North
2016-11-06T13:59:31Z,1478440771,2016,14,0,311.583,311.583,72.8994,28.9616,1026.3,6.82,-999.0,yes,yes,no,300234064506690,BD2GI,AOML,POLAR_STERN,North
2016-11-06T15:00:00Z,1478444400,2016,15,0,311.625,311.625,72.9016,28.955,1026.2,6.83,-999.0,yes,yes,no,300234064506690,BD2GI,AOML,POLAR_STERN,North
2016-11-06T16:00:28Z,1478448029,2016,16,0,311.667,311.667,72.9038,28.9532,1026.2,6.83,-999.0,yes,yes,no,300234064506690,BD2GI,AOML,POLAR_STERN,North
2016-11-06T16:59:31Z,1478451571,2016,17,0,311.708,311.708,72.9058,28.9576,1026.1,6.81,-999.0,yes,yes,no,300234064506690,BD2GI,AOML,POLAR_STERN,North
2016-11-06T18:00:00Z,1478455200,2016,18,0,311.75,311.75,72.9068,28.9672,1026.0,6.79,-999.0,yes,yes,no,300234064506690,BD2GI,AOML,POLAR_STERN,North
2016-11-06T19:00:28Z,1478458829,2016,19,0,311.792,311.792,72.9082,28.9776,1025.9,6.82,-999.0,yes,yes,no,300234064506690,BD2GI,AOML,POLAR_STERN,North
2016-11-06T19:59:31Z,1478462371,2016,20,0,311.833,311.833,72.91,28.9854,1025.8,6.8,-999.0,yes,yes,no,300234064506690,BD2GI,AOML,POLAR_STERN,North
2016-11-06T21:00:00Z,1478466000,2016,21,0,311.875,311.875,72.9116,28.9914,1025.7,6.77,-999.0,yes,yes,no,300234064506690,BD2GI,AOML,POLAR_STERN,North
2016-11-06T22:00:28Z,1478469629,2016,22,0,311.917,311.917,72.9152,28.9938,1025.6,6.82,-999.0,yes,yes,no,300234064506690,BD2GI,AOML,POLAR_STERN,North
2016-11-06T22:59:31Z,1478473171,2016,23,0,311.958,311.958,72.9188,28.9898,1025.6,6.83,-999.0,yes,yes,no,300234064506690,BD2GI,AOML,POLAR_STERN,North
2016-11-07T00:00:00Z,1478476800,2016,0,0,312.0,312.0,72.9222,28.9782,1025.6,6.82,-999.0,yes,yes,no,300234064506690,BD2GI,AOML,POLAR_STERN,North
2016-11-07T01:00:28Z,1478480429,2016,1,0,312.042,312.042,72.9252,28.9658,1025.3,6.82,-999.0,yes,yes,no,300234064506690,BD2GI,AOML,POLAR_STERN,North
2016-11-07T01:59:31Z,1478483971,2016,2,0,312.083,312.083,72.928,28.9532,1025.2,6.73,-999.0,yes,yes,no,300234064506690,BD2GI,AOML,POLAR_STERN,North
2016-11-07T03:00:00Z,1478487600,2016,3,0,312.125,312.125,72.9304,28.9434,1025.1,6.8,-999.0,yes,yes,no,300234064506690,BD2GI,AOML,POLAR_STERN,North
2016-11-07T04:00:28Z,1478491229,2016,4,0,312.167,312.167,72.9328,28.9378,1025.0,6.78,-999.0,yes,yes,no,300234064506690,BD2GI,AOML,POLAR_STERN,North
2016-11-07T04:59:31Z,1478494771,2016,5,0,312.208,312.208,72.9346,28.9392,1024.9,6.8,-999.0,yes,yes,no,300234064506690,BD2GI,AOML,POLAR_STERN,North
2016-11-07T06:00:00Z,1478498400,2016,6,0,312.25,312.25,72.9358,28.947,1024.7,6.75,-999.0,yes,yes,no,300234064506690,BD2GI,AOML,POLAR_STERN,North
2016-11-07T07:00:28Z,1478502029,2016,7,0,312.292,312.292,72.937,28.9558,1024.9,6.79,-999.0,yes,yes,no,300234064506690,BD2GI,AOML,POLAR_STERN,North
2016-11-07T07:59:31Z,1478505571,2016,8,0,312.333,312.333,72.9372,28.9628,1024.8,6.77,-999.0,yes,yes,no,300234064506690,BD2GI,AOML,POLAR_STERN,North
2016-11-07T09:00:00Z,1478509200,2016,9,0,312.375,312.375,72.938,28.9686,1024.6,6.78,-999.0,yes,yes,no,300234064506690,BD2GI,AOML,POLAR_STERN,North
2016-11-07T10:00:28Z,1478512829,2016,10,0,312.417,312.417,72.9388,28.9718,1024.7,6.76,-999.0,yes,yes,no,300234064506690,BD2GI,AOML,POLAR_STERN,North
2016-11-07T10:59:31Z,1478516371,2016,11,0,312.458,312.458,72.9384,28.9716,1024.5,6.77,-999.0,yes,yes,no,300234064506690,BD2GI,AOML,POLAR_STERN,North
2016-11-07T12:00:00Z,1478520000,2016,12,0,312.5,312.5,72.938,28.968,1024.6,6.7,-999.0,yes,yes,no,300234064506690,BD2GI,AOML,POLAR_STERN,North
2016-11-07T13:00:28Z,1478523629,2016,13,0,312.542,312.542,72.9378,28.9608,1024.4,6.75,-999.0,yes,yes,no,300234064506690,BD2GI,AOML,POLAR_STERN,North
2016-11-07T13:59:31Z,1478527171,2016,14,0,312.583,312.583,72.9374,28.9544,1024.1,6.74,-999.0,yes,yes,no,300234064506690,BD2GI,AOML,POLAR_STERN,North
2016-11-07T15:00:00Z,1478530800,2016,15,0,312.625,312.625,72.9372,28.9504,1024.1,6.74,-999.0,yes,yes,no,300234064506690,BD2GI,AOML,POLAR_STERN,North
2016-11-07T16:00:28Z,1478534429,2016,16,0,312.667,312.667,72.9362,28.9498,1024.0,6.77,-999.0,yes,yes,no,300234064506690,BD2GI,AOML,POLAR_STERN,North
2016-11-07T16:59:31Z,1478537971,2016,17,0,312.708,312.708,72.9346,28.9538,1023.8,6.75,-999.0,yes,yes,no,300234064506690,BD2GI,AOML,POLAR_STERN,North
2016-11-07T18:00:00Z,1478541600,2016,18,0,312.75,312.75,72.933,28.962,1023.4,6.77,-999.0,yes,yes,no,300234064506690,BD2GI,AOML,POLAR_STERN,North
2016-11-07T19:00:28Z,1478545229,2016,19,0,312.792,312.792,72.931,28.97,1023.1,6.77,-999.0,yes,yes,no,300234064506690,BD2GI,AOML,POLAR_STERN,North
2016-11-07T19:59:31Z,1478548771,2016,20,0,312.833,312.833,72.9292,28.977,1022.9,6.77,-999.0,yes,yes,no,300234064506690,BD2GI,AOML,POLAR_STERN,North
2016-11-07T21:00:00Z,1478552400,2016,21,0,312.875,312.875,72.9278,28.983,1022.6,6.76,-999.0,yes,yes,no,300234064506690,BD2GI,AOML,POLAR_STERN,North
2016-11-07T22:00:28Z,1478556029,2016,22,0,312.917,312.917,72.927,28.9876,1022.6,6.72,-999.0,yes,yes,no,300234064506690,BD2GI,AOML,POLAR_STERN,North
2016-11-07T22:59:31Z,1478559571,2016,23,0,312.958,312.958,72.9262,28.993,1022.4,6.77,-999.0,yes,yes,no,300234064506690,BD2GI,AOML,POLAR_STERN,North
2016-11-08T00:00:00Z,1478563200,2016,0,0,313.0,313.0,72.9264,28.9956,1021.8,6.72,-999.0,yes,yes,no,300234064506690,BD2GI,AOML,POLAR_STERN,North
2016-11-08T01:00:28Z,1478566829,2016,1,0,313.042,313.042,72.9258,28.9944,1021.4,6.74,-999.0,yes,yes,no,300234064506690,BD2GI,AOML,POLAR_STERN,North
2016-11-08T01:59:31Z,1478570371,2016,2,0,313.083,313.083,72.9252,28.9942,1021.0,6.75,-999.0,yes,yes,no,300234064506690,BD2GI,AOML,POLAR_STERN,North
2016-11-08T03:00:00Z,1478574000,2016,3,0,313.125,313.125,72.9232,28.9914,1020.6,6.75,-999.0,yes,yes,no,300234064506690,BD2GI,AOML,POLAR_STERN,North
2016-11-08T04:00:28Z,1478577629,2016,4,0,313.167,313.167,72.922,28.992,1020.2,6.68,-999.0,yes,yes,no,300234064506690,BD2GI,AOML,POLAR_STERN,North
2016-11-08T04:59:31Z,1478581171,2016,5,0,313.208,313.208,72.92,28.9948,1020.0,6.75,-999.0,yes,yes,no,300234064506690,BD2GI,AOML,POLAR_STERN,North
2016-11-08T06:00:00Z,1478584800,2016,6,0,313.25,313.25,72.9184,28.9996,1019.6,6.72,-999.0,yes,yes,no,300234064506690,BD2GI,AOML,POLAR_STERN,North
2016-11-08T07:00:28Z,1478588429,2016,7,0,313.292,313.292,72.9166,29.0094,1019.3,6.72,-999.0,yes,yes,no,300234064506690,BD2GI,AOML,POLAR_STERN,North
2016-11-08T07:59:31Z,1478591971,2016,8,0,313.333,313.333,72.9138,29.0206,1019.5,6.67,-999.0,yes,yes,no,300234064506690,BD2GI,AOML,POLAR_STERN,North
2016-11-08T09:00:00Z,1478595600,2016,9,0,313.375,313.375,72.9116,29.0316,1019.5,6.71,-999.0,yes,yes,no,300234064506690,BD2GI,AOML,POLAR_STERN,North
2016-11-08T10:00:28Z,1478599229,2016,10,0,313.417,313.417,72.9096,29.0388,1019.6,6.64,-999.0,yes,yes,no,300234064506690,BD2GI,AOML,POLAR_STERN,North
2016-11-08T10:59:31Z,1478602771,2016,11,0,313.458,313.458,72.9078,29.0438,1019.5,6.69,-999.0,yes,yes,no,300234064506690,BD2GI,AOML,POLAR_STERN,North
2016-11-08T12:00:00Z,1478606400,2016,12,0,313.5,313.5,72.9066,29.044,1019.6,6.65,-999.0,yes,yes,no,300234064506690,BD2GI,AOML,POLAR_STERN,North
2016-11-08T13:00:28Z,1478610029,2016,13,0,313.542,313.542,72.9062,29.0442,1019.4,6.69,-999.0,yes,yes,no,300234064506690,BD2GI,AOML,POLAR_STERN,North
2016-11-08T13:59:31Z,1478613571,2016,14,0,313.583,313.583,72.9064,29.045,1019.4,6.69,-999.0,yes,yes,no,300234064506690,BD2GI,AOML,POLAR_STERN,North
2016-11-08T15:00:00Z,1478617200,2016,15,0,313.625,313.625,72.9058,29.0454,1019.6,6.67,-999.0,yes,yes,no,300234064506690,BD2GI,AOML,POLAR_STERN,North
2016-11-08T16:00:28Z,1478620829,2016,16,0,313.667,313.667,72.9054,29.0468,1019.6,6.69,-999.0,yes,yes,no,300234064506690,BD2GI,AOML,POLAR_STERN,North
2016-11-08T16:59:31Z,1478624371,2016,17,0,313.708,313.708,72.905,29.0512,1019.5,6.69,-999.0,yes,yes,no,300234064506690,BD2GI,AOML,POLAR_STERN,North
2016-11-08T18:00:00Z,1478628000,2016,18,0,313.75,313.75,72.905,29.0578,1019.6,6.69,-999.0,yes,yes,no,300234064506690,BD2GI,AOML,POLAR_STERN,North
2016-11-08T19:00:28Z,1478631629,2016,19,0,313.792,313.792,72.9046,29.064,1019.6,6.67,-999.0,yes,yes,no,300234064506690,BD2GI,AOML,POLAR_STERN,North
2016-11-08T19:59:31Z,1478635171,2016,20,0,313.833,313.833,72.9048,29.0738,1019.8,6.61,-999.0,yes,yes,no,300234064506690,BD2GI,AOML,POLAR_STERN,North
2016-11-08T21:00:00Z,1478638800,2016,21,0,313.875,313.875,72.905,29.084,1019.9,6.61,-999.0,yes,yes,no,300234064506690,BD2GI,AOML,POLAR_STERN,North
2016-11-08T22:00:28Z,1478642429,2016,22,0,313.917,313.917,72.9056,29.0902,1019.9,6.68,-999.0,yes,yes,no,300234064506690,BD2GI,AOML,POLAR_STERN,North
2016-11-08T22:59:31Z,1478645971,2016,23,0,313.958,313.958,72.907,29.0938,1020.0,6.66,-999.0,yes,yes,no,300234064506690,BD2GI,AOML,POLAR_STERN,North
2016-11-09T00:00:00Z,1478649600,2016,0,0,314.0,314.0,72.9082,29.0952,1020.0,6.64,-999.0,yes,yes,no,300234064506690,BD2GI,AOML,POLAR_STERN,North
2016-11-09T01:00:28Z,1478653229,2016,1,0,314.042,314.042,72.9102,29.0926,1020.1,6.67,-999.0,yes,yes,no,300234064506690,BD2GI,AOML,POLAR_STERN,North
2016-11-09T01:59:31Z,1478656771,2016,2,0,314.083,314.083,72.9126,29.0884,1019.9,6.58,-999.0,yes,yes,no,300234064506690,BD2GI,AOML,POLAR_STERN,North
2016-11-09T03:00:00Z,1478660400,2016,3,0,314.125,314.125,72.9146,29.0818,1019.9,6.62,-999.0,yes,yes,no,300234064506690,BD2GI,AOML,POLAR_STERN,North
2016-11-09T04:00:28Z,1478664029,2016,4,0,314.167,314.167,72.9164,29.0754,1019.7,6.68,-999.0,yes,yes,no,300234064506690,BD2GI,AOML,POLAR_STERN,North
2016-11-09T04:59:31Z,1478667571,2016,5,0,314.208,314.208,72.917,29.068,1019.7,6.59,-999.0,yes,yes,no,300234064506690,BD2GI,AOML,POLAR_STERN,North
2016-11-09T06:00:00Z,1478671200,2016,6,0,314.25,314.25,72.9178,29.062,1019.5,6.62,-999.0,yes,yes,no,300234064506690,BD2GI,AOML,POLAR_STERN,North
2016-11-09T07:00:28Z,1478674829,2016,7,0,314.292,314.292,72.9182,29.0626,1019.9,6.64,-999.0,yes,yes,no,300234064506690,BD2GI,AOML,POLAR_STERN,North
2016-11-09T07:59:31Z,1478678371,2016,8,0,314.333,314.333,72.9184,29.0656,1020.5,6.65,-999.0,yes,yes,no,300234064506690,BD2GI,AOML,POLAR_STERN,North
2016-11-09T09:00:00Z,1478682000,2016,9,0,314.375,314.375,72.918,29.073,1020.7,6.67,-999.0,yes,yes,no,300234064506690,BD2GI,AOML,POLAR_STERN,North